Location: Gazon
(48.1318°N, 1.2708°W)
Time: 22:32:32
(UTC+00:00)

Terra - Pass Details

Date: 18 September 2020
Orbit: 701 x 703 km, 98.2° (Epoch: 25 October)

Event Time Altitude Azimuth Distance (km) Brightness Sun altitude
Exits shadow 21:58:06 29° 348° (NNW) 1,295 3.6 -33.9°
Drops below altitude 10° 22:00:23 10° 347° (NNW) 2,183 5.0 -34.2°
Sets 22:02:39 0° 347° (NNW) 3,106 6.0 -34.4°
